Flag for Russia Weather past 2 weeks in Sochi, Russia

Now
57 °F

Scattered clouds.


Feels Like: 54 °F
Forecast: 48 / 61 °F
Wind: 13 mph from South

Location: Adler

Current Time: Jan 30, 2015 at 3:30:07 PM

Latest Report: Jan 30, 2015 at 2:30 PM


Visibility: N/A

Pressure: 29.86 "Hg

Humidity: 48%

Dew point: 37 °F

Location of SochiLocation

Historic Weather in Sochi — Graph

°F

Sochi temperature yesterday

Maximum temperature yesterday: 54 °F (at 3:00 PM)
Minimum temperature yesterday: 45 °F (at 5:00 AM)
Average temperature yesterday: 48 °F

Past Weeks' High & Low Weather Summary

 TemperatureHumidityPressure
High59 °F (Jan 24, 3:00 PM)93% (Jan 15, 9:30 PM)30.42 "Hg (Jan 15, 9:30 PM)
Low32 °F (Jan 18, 2:30 AM)29% (Jan 24, 3:00 PM)29.77 "Hg (Jan 28, 2:00 PM)
Average46 °F71%30.12 "Hg
* Reported Jan 15 2:00 PM — Jan 30 2:30 PM, Sochi, Weather by CustomWeather, © 2014

Note: Actual official high and low records may vary slightly from our data, if they occured in-between our weather recording intervals... More about our weather records

Advertising

Sochi weather history for previous 24 hours

 ConditionsComfort  
Time TempWeatherWind HumidityBarometerVisibility
2:30 PM
Jan 30
57 °FScattered clouds.13 mph48%29.86 "HgN/A
2:00 PM57 °FScattered clouds.13 mph48%29.86 "HgN/A
1:30 PM57 °FPartly sunny.13 mph48%29.86 "HgN/A
1:00 PM59 °FPartly sunny.15 mph42%29.89 "HgN/A
12:30 PM57 °FPartly sunny.15 mph44%29.89 "HgN/A
12:00 PM57 °FPartly sunny.15 mph41%29.89 "HgN/A
11:30 AM57 °FScattered clouds.13 mph41%29.89 "HgN/A
11:00 AM57 °FScattered clouds.13 mph44%29.89 "HgN/A
10:30 AM55 °FPassing clouds.10 mph51%29.89 "HgN/A
10:00 AM52 °FPassing clouds.8 mph58%29.89 "HgN/A
9:30 AM48 °FPassing clouds.10 mph66%29.89 "HgN/A
9:00 AM46 °FPassing clouds.13 mph71%29.89 "HgN/A
8:30 AM45 °FPassing clouds.15 mph76%29.89 "HgN/A
8:00 AM45 °FPassing clouds.15 mph76%29.89 "HgN/A
7:30 AM45 °FPassing clouds.13 mph76%29.89 "HgN/A
7:00 AM43 °FPassing clouds.17 mph81%29.89 "HgN/A
6:30 AM43 °FPassing clouds.15 mph81%29.89 "HgN/A
5:30 AM45 °FPassing clouds.15 mph76%29.89 "HgN/A
5:00 AM45 °FPassing clouds.13 mph76%29.89 "HgN/A
4:30 AM45 °FOvercast.13 mph81%29.89 "HgN/A
4:00 AM45 °FOvercast.13 mph81%29.89 "HgN/A
3:30 AM45 °FPassing clouds.10 mph76%29.89 "HgN/A
3:00 AM45 °FPassing clouds.13 mph81%29.92 "HgN/A
2:30 AM43 °FPassing clouds.13 mph87%29.92 "HgN/A
2:00 AM43 °FPassing clouds.10 mph87%29.92 "HgN/A
1:30 AM45 °FPassing clouds.10 mph81%29.92 "HgN/A
1:00 AM43 °FPassing clouds.10 mph87%29.92 "HgN/A
12:30 AM43 °FPassing clouds.13 mph87%29.92 "HgN/A
12:00 AM43 °FPassing clouds.13 mph87%29.92 "HgN/A
11:30 PM
Jan 29
45 °FPartly cloudy.10 mph81%29.92 "HgN/A
11:00 PM45 °FMostly cloudy.13 mph87%29.92 "HgN/A
10:30 PM45 °FMostly cloudy.10 mph87%29.95 "HgN/A
10:00 PM45 °FMostly cloudy.10 mph87%29.92 "HgN/A
9:30 PM45 °FMostly cloudy.8 mph87%29.95 "HgN/A
9:00 PM45 °FPartly cloudy.8 mph87%29.95 "HgN/A
8:30 PM46 °FOvercast.8 mph87%29.95 "HgN/A
8:00 PM46 °FSprinkles. Overcast.6 mph87%29.95 "HgN/A
7:30 PM46 °FSprinkles. Overcast.6 mph87%29.95 "Hg6 mi
7:00 PM48 °FSprinkles. Overcast.8 mph82%29.95 "Hg5 mi
6:30 PM50 °FSprinkles. Overcast.10 mph71%29.92 "Hg6 mi
6:00 PM50 °FThundershowers. Overcast.3 mph76%29.92 "Hg4 mi
5:30 PM52 °FThunderstorms. Mostly cloudy.10 mph67%29.92 "Hg6 mi
5:00 PM54 °FThundershowers. More clouds than sun.10 mph58%29.89 "HgN/A
4:30 PM54 °FThundershowers. More clouds than sun.10 mph58%29.89 "HgN/A
4:00 PM54 °FThundershowers. More clouds than sun.8 mph58%29.86 "HgN/A
3:30 PM54 °FMore clouds than sun.13 mph58%29.86 "HgN/A
3:00 PM54 °FMore clouds than sun.13 mph58%29.86 "HgN/A
Weather by CustomWeather, © 2014

See weather overviewHow to use our weather pages